SCP
-0 -0 -0 -0 -0 -0 0 0 0 0 0 0 0 0 0 0 0 0 0 0 0 0 0 0 0 0 0 0 0 0 0 0 0 0 -0 -0 0 0 0 1 0 0 0 0
-0 -0 -0 -0 -0 0 0 0 0 0 0 0 0 0 0 0 0 0 0 0 0 0 0 0 0 0 0 0 0 0 0 0 0 0 0 0 0 0 0 0 0 0 0 0
-0 -0 -0 -0 -0 -0 0 0 0 0 0 0 0 0 0 0 0 0 0 0 0 0 0 0 0 0 0 0 0 0 0 0 0 0 0 0 0 0 0 0 0 0 0 0
0 -0 -0 -0 -0 -0 0 0 0 0 0 0 0 0 0 0 0 0 0 0 0 0 0 0 0 0 0 0 0 0 0 0 0 0 0 0 0 0 0 0 0 0 0 0
0 0 0 -0 -0 -0 0 0 0 0 0 0 0 0 0 0 0 0 0 0 0 0 0 0 0 0 0 0 0 0 0 0 0 0 0 0 0 0 0 0 0 0 0 0
0 0 0 0 -0 -0 0 0 0 0 0 0 0 0 0 0 0 0 0 0 0 0 0 0 0 0 0 0 0 0 0 0 0 0 0 0 0 0 0 0 0 0 0 0
0 0 0 0 0 0 0 0 0 0 0 0 0 0 0 0 0 0 0 0 0 0 0 0 0 0 0 0 0 0 0 0 0 0 0 0 0 0 0 0 0 0 0 0
0 0 0 0 0 0 0 0 0 0 0 0 0 0 0 0 0 0 0 0 0 0 0 0 0 0 0 0 0 0 0 0 0 0 0 0 0 0 0 0 0 0 0 0
0 0 0 0 0 0 0 0 0 0 0 0 0 0 0 0 0 0 0 0 0 0 0 0 0 0 0 0 0 0 0 0 0 0 0 0 0 0 0 0 0 0 0 0
0 0 0 0 0 0 0 0 0 0 0 0 0 0 0 0 0 0 0 0 0 0 0 0 0 0 0 0 0 0 0 0 0 0 0 0 0 0 0 0 0 0 0 0
0 0 0 0 0 0 0 0 0 0 0 0 0 0 0 0 0 0 0 0 0 0 0 0 0 0 0 0 0 0 -0 -0 -0 0 0 0 0 0 0 0 0 0 0 0
0 0 0 0 0 0 0 0 0 0 0 0 -0 0 -0 0 -0 0 0 0 0 0 0 0 0 0 0 0 0 0 0 0 0 0 1 0 0 0 0 0 0 0 -0 -0
0 0 0 0 0 0 0 0 0 0 0 0 0 0 0 0 0 0 0 0 0 0 0 0 0 0 0 0 0 0 0 0 0 -0 0 0 0 -0 0 0 0 0 0 0
0 0 0 0 0 0 0 0 0 0 0 0 0 0 0 0 0 0 0 0 0 0 0 0 0 0 0 0 0 0 0 -0 -0 0 -0 0 0 -0 0 0 0 0 0 0
0 0 0 0 0 0 0 0 0 0 0 0 0 -0 0 0 0 0 0 0 0 0 0 0 0 0 0 0 -0 -0 0 -0 -0 0 -0 -0 -0 -0 0 0 0 0 0 -0
0 0 0 0 0 0 0 0 0 0 0 0 0 0 0 0 0 0 0 0 0 0 0 0 0 0 0 0 -0 0 0 0 0 0 0 -0 0 0 0 0 -0 0 -0 -0
0 0 0 0 0 0 0 0 0 0 0 0 0 0 0 0 0 0 0 0 0 0 0 0 0 0 0 0 -0 -0 -0 0 -0 0 0 -0 -0 -0 -0 0 0 -0 -0 -0
0 0 0 0 0 0 0 0 0 0 0 0 0 0 0 0 0 0 0 0 0 0 0 0 0 0 0 0 -0 -0 0 0 0 -0 -0 -0 -0 -0 -0 -0 0 -0 -0 -0
0 0 0 0 0 0 0 0 0 0 0 0 0 0 0 0 0 0 0 0 0 0 0 0 0 0 0 0 -0 0 -0 -0 -0 -0 -0 -0 0 0 0 0 0 -0 -0 -0
0 0 0 0 0 0 0 0 0 0 0 0 0 0 0 0 0 0 0 0 0 0 0 -0 0 0 -0 -0 0 0 -0 -0 -0 -0 0 0 0 0 0 0 -0 -0 -0 -0
0 0 0 0 0 0 0 0 0 0 0 0 0 0 0 0 0 0 0 0 -0 -0 -0 -0 -0 -0 -0 0 -0 -0 0 0 -0 0 0 0 0 0 -0 -0 -0 -0 0 0
0 0 0 0 0 0 0 0 0 0 0 0 0 0 0 0 0 0 0 -0 0 0 -0 -0 -0 -0 0 -0 0 -0 0 -0 0 0 0 0 0 0 0 -0 -0 -0 0 0
0 0 0 0 0 0 0 0 0 0 0 0 0 0 0 0 0 0 -0 -0 0 -0 -0 -0 0 -0 0 0 0 0 0 0 0 0 0 0 -0 0 0 -0 -0 0 0 0
0 0 0 0 0 0 0 0 0 0 0 0 0 0 0 0 0 0 0 -0 0 -0 0 -0 -0 0 0 0 0 -0 -0 0 0 0 0 0 0 0 -0 -0 0 0 0 0
0 0 0 0 0 0 -0 0 0 0 0 0 0 0 0 0 0 0 0 0 -0 0 -0 -0 0 -0 0 0 0 -0 -0 -0 0 0 -0 -0 0 0 0 -0 0 0 0 0
0 0 0 0 0 0 0 0 0 0 0 0 0 0 0 0 0 0 0 0 -0 -0 -0 -0 -0 -0 0 0 0 -0 -0 0 -0 -0 -0 -0 -0 0 -0 -0 0 0 0 0
0 0 0 0 0 0 0 0 0 0 0 0 0 0 0 0 0 0 0 0 -0 -0 0 -0 -0 -0 0 0 0 -0 -0 0 -0 -0 -0 -0 0 0 0 -0 0 0 0 0
Wind_Speed_500mb
59 59 59 60 63 56 22 9 10 13 10 17 13 16 10 8 10 3 9 10 15 14 17 17 19 17 2 13 9 17 20 12 27 40 50 41 27 27 23 1 19 21 22 39
57 56 55 54 53 56 53 20 13 10 15 9 17 10 13 4 9 9 9 14 15 14 17 11 13 15 11 5 6 7 12 7 18 18 13 13 5 22 31 26 15 26 27 31
53 54 52 49 44 37 31 16 8 15 8 11 18 17 17 11 12 8 15 18 26 21 21 19 16 25 22 22 15 17 9 14 24 21 31 37 47 47 41 35 16 35 43 64
51 50 50 47 40 31 31 15 12 11 13 14 22 17 20 19 16 1 16 11 18 18 4 21 31 27 32 42 30 22 17 28 33 40 43 45 50 56 53 46 46 41 53 58
48 47 47 47 42 26 22 18 16 23 35 20 21 11 12 20 16 23 22 26 33 29 27 25 30 40 34 34 36 35 25 32 36 48 38 45 57 52 54 55 47 42 39 45
44 43 41 42 41 30 16 27 22 18 25 29 15 11 17 25 28 20 22 21 24 28 31 39 43 50 55 50 41 38 35 16 3 37 33 39 38 35 28 30 36 33 26 35
39 41 38 35 33 29 23 23 27 23 15 19 21 32 30 23 27 29 37 35 29 33 36 48 52 61 67 66 54 52 36 31 9 20 21 31 20 36 42 30 30 29 39 41
35 35 36 31 27 24 20 27 21 18 16 30 27 32 32 36 36 31 26 23 23 31 34 28 26 28 38 41 48 36 38 29 7 9 19 40 45 26 1 6 20 33 13 22
34 33 32 33 26 22 19 18 17 20 21 0 38 31 32 21 21 25 27 39 26 34 22 17 21 24 40 22 6 10 7 16 15 11 11 15 14 36 34 15 23 15 15 32
31 30 28 29 29 22 19 10 24 19 31 24 31 31 27 33 29 18 30 24 33 22 13 13 18 25 39 25 20 13 13 7 11 9 10 20 26 18 28 17 21 56 53 49
28 26 25 26 26 26 21 11 19 17 24 55 28 23 37 37 32 18 26 20 13 15 15 14 17 15 21 26 35 19 15 14 17 18 20 27 9 21 2 26 47 38 36 49
25 25 24 24 23 24 20 8 17 23 32 45 60 43 46 39 35 38 22 21 33 10 4 10 9 23 24 34 26 31 22 18 11 11 10 36 70 64 52 64 39 33 48 57
24 23 23 23 23 22 23 22 19 27 32 58 19 18 10 10 15 21 30 28 20 20 16 17 9 13 18 16 25 36 31 41 16 13 27 41 54 72 67 33 33 50 55 50
22 20 22 25 25 22 24 25 20 19 18 15 7 2 29 35 40 40 39 40 32 21 21 15 8 11 24 21 33 34 31 37 29 39 48 56 57 56 54 38 47 46 38 55
24 21 24 27 28 26 27 30 21 17 20 16 49 63 29 13 17 18 22 21 30 30 11 10 10 37 24 36 32 30 40 30 20 18 44 50 59 52 25 32 33 43 50 47
27 24 27 29 27 24 24 5 20 16 7 18 10 32 27 8 12 19 26 29 27 22 11 10 12 25 17 8 17 36 43 66 62 46 56 67 36 36 31 36 42 34 39 45
27 28 31 28 26 24 15 10 3 17 4 17 16 16 12 13 20 26 20 15 16 17 9 11 18 38 20 5 18 51 61 52 44 26 32 21 33 29 32 30 31 37 38 41
29 31 28 25 27 31 19 11 18 19 14 15 8 12 24 2 17 14 18 13 12 14 10 9 14 20 15 8 26 63 31 32 28 33 34 36 42 25 31 31 36 38 40 40
24 24 21 21 9 7 12 14 15 9 13 9 12 14 15 6 21 24 27 11 9 9 11 11 8 5 2 16 41 56 35 23 31 39 41 33 38 40 32 35 34 36 35 39
13 13 7 10 7 6 5 8 8 16 15 16 22 32 21 28 19 12 19 10 7 7 12 8 6 3 18 41 57 43 29 25 32 45 40 36 33 32 33 33 29 30 33 37
4 8 3 6 14 8 12 13 14 16 10 16 19 25 18 9 12 13 7 8 9 7 5 3 3 2 25 60 60 26 19 28 39 30 28 29 28 28 29 27 28 30 33 33
10 17 24 15 9 13 11 8 11 13 9 15 9 11 19 18 10 8 6 5 8 6 8 4 7 12 53 57 36 30 11 27 33 30 29 28 29 26 26 25 26 30 33 37
5 6 7 9 11 6 11 17 9 11 12 9 9 11 15 13 10 7 7 9 9 21 5 4 5 29 50 48 38 30 4 18 32 31 27 28 27 29 28 28 30 32 38 45
10 10 8 10 12 13 15 19 10 4 9 12 15 17 7 7 7 9 6 8 4 3 5 5 9 33 51 42 35 22 20 21 29 31 26 26 27 30 33 27 32 39 47 43
10 11 10 14 28 31 21 15 13 11 12 16 15 20 18 12 7 6 7 6 4 4 4 7 25 42 39 34 32 21 16 16 26 25 22 24 25 39 36 34 38 43 41 48
11 17 16 24 23 26 30 27 24 12 15 17 11 7 9 8 6 8 9 4 2 4 4 12 18 34 34 21 25 21 14 19 20 25 21 24 33 35 36 44 49 44 47 56
13 17 31 40 42 34 39 24 25 27 29 15 10 7 10 7 7 12 7 5 5 11 6 10 16 30 28 15 18 16 15 19 19 26 25 31 41 42 46 46 45 40 41 46
Wind_Direction_500mb
355 357 359 359 355 2 13 337 295 357 339 269 233 43 21 356 325 296 297 310 298 299 334 307 300 302 22 69 341 304 315 290 286 286 284 273 259 276 295 60 281 274 288 273
354 357 359 1 1 359 356 326 313 8 335 312 2 44 304 229 305 333 314 303 299 310 304 316 302 303 339 256 255 338 10 310 313 307 260 120 272 309 313 298 298 279 283 278
355 355 358 2 6 5 357 317 320 11 332 59 346 2 308 325 159 302 289 295 306 290 292 301 282 278 292 297 221 173 174 239 248 265 287 303 293 291 288 284 270 279 263 281
354 356 357 1 10 26 10 359 36 14 325 22 336 313 306 299 310 232 328 289 283 289 218 288 293 283 309 296 274 227 214 251 261 269 278 285 297 295 291 280 269 249 267 269
349 355 357 1 8 43 31 14 357 335 299 316 305 286 306 339 344 340 313 308 311 313 301 297 297 307 304 293 292 286 256 263 269 272 285 291 286 286 284 286 290 291 311 304
346 351 359 3 8 20 25 8 341 303 299 289 299 5 342 316 318 310 307 309 313 299 301 311 301 297 287 276 276 274 282 281 81 271 291 306 294 272 275 292 293 280 287 307
343 345 356 4 8 20 33 350 339 312 301 324 328 326 304 301 316 314 307 302 285 307 322 311 294 279 268 261 254 243 249 246 235 274 299 277 255 314 323 320 303 336 326 320
337 342 345 357 2 5 22 359 353 337 310 314 302 348 321 313 300 282 312 347 356 331 319 304 299 298 279 274 257 233 215 232 190 236 251 274 288 289 310 111 299 298 351 340
331 337 339 341 355 356 352 355 343 330 306 172 331 314 303 297 338 313 321 320 337 320 296 315 298 304 301 289 299 248 313 228 186 185 236 273 297 325 10 333 290 24 314 316
326 331 334 335 336 355 359 344 328 326 296 275 351 320 311 308 302 302 304 324 317 315 280 288 283 285 302 313 332 341 320 304 248 220 256 275 282 12 341 282 323 335 326 312
319 324 326 330 331 339 357 334 321 338 301 291 292 310 303 298 292 294 313 346 7 327 305 288 307 298 308 316 313 306 289 298 280 276 286 280 69 349 96 302 313 308 305 314
311 315 318 324 326 329 338 325 328 318 296 277 291 292 274 265 272 268 270 279 295 263 324 336 321 308 303 288 289 307 297 297 289 276 252 308 309 309 311 313 318 307 314 316
304 305 312 316 318 318 317 308 305 304 308 313 328 343 208 237 246 256 257 277 305 303 259 294 276 275 298 299 294 299 305 307 300 302 272 282 294 300 301 316 302 314 322 313
311 302 313 315 312 310 306 301 294 290 292 288 301 243 301 282 274 265 240 278 267 276 273 269 258 269 283 286 295 291 290 290 287 287 286 296 293 296 307 305 317 318 315 315
311 309 314 314 310 312 308 296 277 277 255 294 298 303 298 298 229 269 246 244 238 251 246 245 253 272 295 282 279 274 286 276 280 281 302 288 298 311 328 326 323 313 327 319
299 303 310 309 308 317 338 354 189 188 268 300 306 305 291 264 233 246 258 268 239 227 203 239 249 254 269 275 282 287 303 318 310 312 312 304 323 348 328 333 333 331 323 326
295 302 304 302 301 298 265 289 210 199 252 283 291 288 203 214 263 272 270 218 238 224 231 233 252 267 253 246 277 290 310 328 331 337 343 327 347 329 339 349 339 332 334 334
293 299 297 294 292 290 288 240 249 246 267 263 273 272 282 274 304 323 287 268 219 215 242 255 248 275 220 249 333 334 343 341 355 359 352 331 318 343 356 351 343 345 344 353
299 299 299 293 266 235 211 247 265 199 229 259 245 274 298 356 344 321 305 262 253 211 209 228 249 261 250 339 326 325 339 321 346 346 339 343 349 352 356 354 354 351 2 9
300 290 244 213 133 181 341 283 205 197 220 232 267 280 277 299 329 307 316 286 250 225 217 182 212 179 338 340 340 323 310 350 358 350 350 3 1 2 359 1 358 7 12 16
299 258 17 1 327 293 238 209 211 195 232 220 248 252 287 290 280 299 307 322 283 280 92 260 195 10 346 339 340 348 4 7 350 358 1 3 3 3 5 10 13 17 37 36
263 304 316 298 246 229 247 221 210 198 252 166 222 225 227 240 236 259 273 286 282 277 308 4 351 3 337 339 354 340 19 5 10 12 8 14 15 19 23 23 28 41 57 70
269 244 246 224 227 221 230 217 216 197 207 184 212 237 223 226 210 222 235 236 247 318 4 322 36 324 329 344 346 338 358 36 27 24 26 21 31 35 36 50 46 68 78 75
239 226 235 236 206 222 200 239 272 153 183 185 239 274 271 273 236 246 243 251 308 312 314 15 321 327 329 344 342 347 16 41 40 28 23 31 41 49 54 57 71 78 87 78
243 236 237 234 244 268 281 247 167 204 219 204 254 270 251 253 257 263 267 262 192 264 17 312 321 322 332 340 360 11 36 46 38 28 38 49 62 53 62 72 87 97 87 88
240 238 243 258 275 266 240 238 256 215 217 221 236 257 266 255 224 225 247 208 13 68 207 308 326 328 338 345 5 2 57 70 54 36 66 73 78 70 71 75 79 107 88 85
235 242 244 254 276 285 282 293 243 219 213 222 223 234 218 239 239 255 279 5 358 289 227 358 358 338 342 342 9 14 75 77 59 53 85 95 82 83 82 86 78 86 91 97
Wind_Speed_850mb
59 59 59 60 63 56 22 9 10 13 10 17 13 16 10 8 10 3 9 10 15 14 17 17 19 17 2 13 9 17 20 12 27 40 50 41 27 27 23 1 19 21 22 39
57 56 55 54 53 56 53 20 13 10 15 9 17 10 13 4 9 9 9 14 15 14 17 11 13 15 11 5 6 7 12 7 18 18 13 13 5 22 31 26 15 26 27 31
53 54 52 49 44 37 31 16 8 15 8 11 18 17 17 11 12 8 15 18 26 21 21 19 16 25 22 22 15 17 9 14 24 21 31 37 47 47 41 35 16 35 43 64
51 50 50 47 40 31 31 15 12 11 13 14 22 17 20 19 16 1 16 11 18 18 4 21 31 27 32 42 30 22 17 28 33 40 43 45 50 56 53 46 46 41 53 58
48 47 47 47 42 26 22 18 16 23 35 20 21 11 12 20 16 23 22 26 33 29 27 25 30 40 34 34 36 35 25 32 36 48 38 45 57 52 54 55 47 42 39 45
44 43 41 42 41 30 16 27 22 18 25 29 15 11 17 25 28 20 22 21 24 28 31 39 43 50 55 50 41 38 35 16 3 37 33 39 38 35 28 30 36 33 26 35
39 41 38 35 33 29 23 23 27 23 15 19 21 32 30 23 27 29 37 35 29 33 36 48 52 61 67 66 54 52 36 31 9 20 21 31 20 36 42 30 30 29 39 41
35 35 36 31 27 24 20 27 21 18 16 30 27 32 32 36 36 31 26 23 23 31 34 28 26 28 38 41 48 36 38 29 7 9 19 40 45 26 1 6 20 33 13 22
34 33 32 33 26 22 19 18 17 20 21 0 38 31 32 21 21 25 27 39 26 34 22 17 21 24 40 22 6 10 7 16 15 11 11 15 14 36 34 15 23 15 15 32
31 30 28 29 29 22 19 10 24 19 31 24 31 31 27 33 29 18 30 24 33 22 13 13 18 25 39 25 20 13 13 7 11 9 10 20 26 18 28 17 21 56 53 49
28 26 25 26 26 26 21 11 19 17 24 55 28 23 37 37 32 18 26 20 13 15 15 14 17 15 21 26 35 19 15 14 17 18 20 27 9 21 2 26 47 38 36 49
25 25 24 24 23 24 20 8 17 23 32 45 60 43 46 39 35 38 22 21 33 10 4 10 9 23 24 34 26 31 22 18 11 11 10 36 70 64 52 64 39 33 48 57
24 23 23 23 23 22 23 22 19 27 32 58 19 18 10 10 15 21 30 28 20 20 16 17 9 13 18 16 25 36 31 41 16 13 27 41 54 72 67 33 33 50 55 50
22 20 22 25 25 22 24 25 20 19 18 15 7 2 29 35 40 40 39 40 32 21 21 15 8 11 24 21 33 34 31 37 29 39 48 56 57 56 54 38 47 46 38 55
24 21 24 27 28 26 27 30 21 17 20 16 49 63 29 13 17 18 22 21 30 30 11 10 10 37 24 36 32 30 40 30 20 18 44 50 59 52 25 32 33 43 50 47
27 24 27 29 27 24 24 5 20 16 7 18 10 32 27 8 12 19 26 29 27 22 11 10 12 25 17 8 17 36 43 66 62 46 56 67 36 36 31 36 42 34 39 45
27 28 31 28 26 24 15 10 3 17 4 17 16 16 12 13 20 26 20 15 16 17 9 11 18 38 20 5 18 51 61 52 44 26 32 21 33 29 32 30 31 37 38 41
29 31 28 25 27 31 19 11 18 19 14 15 8 12 24 2 17 14 18 13 12 14 10 9 14 20 15 8 26 63 31 32 28 33 34 36 42 25 31 31 36 38 40 40
24 24 21 21 9 7 12 14 15 9 13 9 12 14 15 6 21 24 27 11 9 9 11 11 8 5 2 16 41 56 35 23 31 39 41 33 38 40 32 35 34 36 35 39
13 13 7 10 7 6 5 8 8 16 15 16 22 32 21 28 19 12 19 10 7 7 12 8 6 3 18 41 57 43 29 25 32 45 40 36 33 32 33 33 29 30 33 37
4 8 3 6 14 8 12 13 14 16 10 16 19 25 18 9 12 13 7 8 9 7 5 3 3 2 25 60 60 26 19 28 39 30 28 29 28 28 29 27 28 30 33 33
10 17 24 15 9 13 11 8 11 13 9 15 9 11 19 18 10 8 6 5 8 6 8 4 7 12 53 57 36 30 11 27 33 30 29 28 29 26 26 25 26 30 33 37
5 6 7 9 11 6 11 17 9 11 12 9 9 11 15 13 10 7 7 9 9 21 5 4 5 29 50 48 38 30 4 18 32 31 27 28 27 29 28 28 30 32 38 45
10 10 8 10 12 13 15 19 10 4 9 12 15 17 7 7 7 9 6 8 4 3 5 5 9 33 51 42 35 22 20 21 29 31 26 26 27 30 33 27 32 39 47 43
10 11 10 14 28 31 21 15 13 11 12 16 15 20 18 12 7 6 7 6 4 4 4 7 25 42 39 34 32 21 16 16 26 25 22 24 25 39 36 34 38 43 41 48
11 17 16 24 23 26 30 27 24 12 15 17 11 7 9 8 6 8 9 4 2 4 4 12 18 34 34 21 25 21 14 19 20 25 21 24 33 35 36 44 49 44 47 56
13 17 31 40 42 34 39 24 25 27 29 15 10 7 10 7 7 12 7 5 5 11 6 10 16 30 28 15 18 16 15 19 19 26 25 31 41 42 46 46 45 40 41 46
Wind_Direction_850mb
355 357 359 359 355 2 13 337 295 357 339 269 233 43 21 356 325 296 297 310 298 299 334 307 300 302 22 69 341 304 315 290 286 286 284 273 259 276 295 60 281 274 288 273
354 357 359 1 1 359 356 326 313 8 335 312 2 44 304 229 305 333 314 303 299 310 304 316 302 303 339 256 255 338 10 310 313 307 260 120 272 309 313 298 298 279 283 278
355 355 358 2 6 5 357 317 320 11 332 59 346 2 308 325 159 302 289 295 306 290 292 301 282 278 292 297 221 173 174 239 248 265 287 303 293 291 288 284 270 279 263 281
354 356 357 1 10 26 10 359 36 14 325 22 336 313 306 299 310 232 328 289 283 289 218 288 293 283 309 296 274 227 214 251 261 269 278 285 297 295 291 280 269 249 267 269
349 355 357 1 8 43 31 14 357 335 299 316 305 286 306 339 344 340 313 308 311 313 301 297 297 307 304 293 292 286 256 263 269 272 285 291 286 286 284 286 290 291 311 304
346 351 359 3 8 20 25 8 341 303 299 289 299 5 342 316 318 310 307 309 313 299 301 311 301 297 287 276 276 274 282 281 81 271 291 306 294 272 275 292 293 280 287 307
343 345 356 4 8 20 33 350 339 312 301 324 328 326 304 301 316 314 307 302 285 307 322 311 294 279 268 261 254 243 249 246 235 274 299 277 255 314 323 320 303 336 326 320
337 342 345 357 2 5 22 359 353 337 310 314 302 348 321 313 300 282 312 347 356 331 319 304 299 298 279 274 257 233 215 232 190 236 251 274 288 289 310 111 299 298 351 340
331 337 339 341 355 356 352 355 343 330 306 172 331 314 303 297 338 313 321 320 337 320 296 315 298 304 301 289 299 248 313 228 186 185 236 273 297 325 10 333 290 24 314 316
326 331 334 335 336 355 359 344 328 326 296 275 351 320 311 308 302 302 304 324 317 315 280 288 283 285 302 313 332 341 320 304 248 220 256 275 282 12 341 282 323 335 326 312
319 324 326 330 331 339 357 334 321 338 301 291 292 310 303 298 292 294 313 346 7 327 305 288 307 298 308 316 313 306 289 298 280 276 286 280 69 349 96 302 313 308 305 314
311 315 318 324 326 329 338 325 328 318 296 277 291 292 274 265 272 268 270 279 295 263 324 336 321 308 303 288 289 307 297 297 289 276 252 308 309 309 311 313 318 307 314 316
304 305 312 316 318 318 317 308 305 304 308 313 328 343 208 237 246 256 257 277 305 303 259 294 276 275 298 299 294 299 305 307 300 302 272 282 294 300 301 316 302 314 322 313
311 302 313 315 312 310 306 301 294 290 292 288 301 243 301 282 274 265 240 278 267 276 273 269 258 269 283 286 295 291 290 290 287 287 286 296 293 296 307 305 317 318 315 315
311 309 314 314 310 312 308 296 277 277 255 294 298 303 298 298 229 269 246 244 238 251 246 245 253 272 295 282 279 274 286 276 280 281 302 288 298 311 328 326 323 313 327 319
299 303 310 309 308 317 338 354 189 188 268 300 306 305 291 264 233 246 258 268 239 227 203 239 249 254 269 275 282 287 303 318 310 312 312 304 323 348 328 333 333 331 323 326
295 302 304 302 301 298 265 289 210 199 252 283 291 288 203 214 263 272 270 218 238 224 231 233 252 267 253 246 277 290 310 328 331 337 343 327 347 329 339 349 339 332 334 334
293 299 297 294 292 290 288 240 249 246 267 263 273 272 282 274 304 323 287 268 219 215 242 255 248 275 220 249 333 334 343 341 355 359 352 331 318 343 356 351 343 345 344 353
299 299 299 293 266 235 211 247 265 199 229 259 245 274 298 356 344 321 305 262 253 211 209 228 249 261 250 339 326 325 339 321 346 346 339 343 349 352 356 354 354 351 2 9
300 290 244 213 133 181 341 283 205 197 220 232 267 280 277 299 329 307 316 286 250 225 217 182 212 179 338 340 340 323 310 350 358 350 350 3 1 2 359 1 358 7 12 16
299 258 17 1 327 293 238 209 211 195 232 220 248 252 287 290 280 299 307 322 283 280 92 260 195 10 346 339 340 348 4 7 350 358 1 3 3 3 5 10 13 17 37 36
263 304 316 298 246 229 247 221 210 198 252 166 222 225 227 240 236 259 273 286 282 277 308 4 351 3 337 339 354 340 19 5 10 12 8 14 15 19 23 23 28 41 57 70
269 244 246 224 227 221 230 217 216 197 207 184 212 237 223 226 210 222 235 236 247 318 4 322 36 324 329 344 346 338 358 36 27 24 26 21 31 35 36 50 46 68 78 75
239 226 235 236 206 222 200 239 272 153 183 185 239 274 271 273 236 246 243 251 308 312 314 15 321 327 329 344 342 347 16 41 40 28 23 31 41 49 54 57 71 78 87 78
243 236 237 234 244 268 281 247 167 204 219 204 254 270 251 253 257 263 267 262 192 264 17 312 321 322 332 340 360 11 36 46 38 28 38 49 62 53 62 72 87 97 87 88
240 238 243 258 275 266 240 238 256 215 217 221 236 257 266 255 224 225 247 208 13 68 207 308 326 328 338 345 5 2 57 70 54 36 66 73 78 70 71 75 79 107 88 85
235 242 244 254 276 285 282 293 243 219 213 222 223 234 218 239 239 255 279 5 358 289 227 358 358 338 342 342 9 14 75 77 59 53 85 95 82 83 82 86 78 86 91 97